This demonstration page uses our WeatherBlox Daily Observations layout. Learn more.

Left ArrowRight Arrow

38.80484, -77.04692

Hourly Observations for December 3, 2021

Temp ( °F °C ) Dew Point ( °F °C ) Humidity (%) Winds ( mph kmh ) Pressure ( in mb ) Visibility ( mi km ) Precip ( " mm )
12:52 am 00:52 Mostly Cloudy 61 16.1 35 1.7 38 38 NW 18 30 29.81 1009 10 16 0.00 0.00
1:46 am 01:46 Mostly Cloudy 55 13 36 2 47 47 N 15 24 29.87 1012 10 16 0.00 0.00
1:52 am 01:52 Mostly Cloudy 55 12.8 35 1.7 47 47 N 16 26 29.88 1012 10 16 0.00 0.00
2:52 am 02:52 Partly Cloudy 52 11.1 33 0.6 49 49 NNW 16 26 29.92 1013 10 16 0.00 0.00
3:52 am 03:52 Partly Cloudy 50 10 30 -1.1 46 46 N 17 28 29.94 1014 10 16 0.00 0.00
4:52 am 04:52 Mostly Clear 49 9.4 29 -1.7 46 46 NNW 13 20 29.96 1015 10 16 0.00 0.00
5:52 am 05:52 Mostly Clear 48 8.9 28 -2.2 46 46 NNW 14 22 29.97 1015 10 16 0.00 0.00
6:52 am 06:52 Partly Cloudy 48 8.9 28 -2.2 46 46 NNW 14 22 30.00 1016 10 16 0.00 0.00
7:52 am 07:52 Mostly Sunny 48 8.9 29 -1.7 48 48 NNE 6 9 30.02 1017 10 16 0.00 0.00
8:52 am 08:52 Mostly Cloudy 51 10.6 29 -1.7 43 43 NW 8 13 30.06 1018 10 16 0.00 0.00
9:52 am 09:52 Mostly Cloudy 51 10.6 29 -1.7 43 43 WNW 7 11 30.07 1018 10 16 0.00 0.00
10:52 am 10:52 Mostly Cloudy 52 11.1 29 -1.7 41 41 NW 12 19 30.06 1018 10 16 0.00 0.00
11:52 am 11:52 Mostly Cloudy 52 11.1 29 -1.7 41 41 WNW 14 22 30.05 1018 10 16 0.00 0.00
12:52 pm 12:52 Mostly Cloudy 52 11.1 29 -1.7 41 41 WNW 13 20 30.04 1017 10 16 0.00 0.00
1:52 pm 13:52 Mostly Cloudy 52 11.1 30 -1.1 43 43 W 10 17 30.04 1017 10 16 0.00 0.00
2:52 pm 14:52 Cloudy 53 11.7 30 -1.1 41 41 NNW 13 20 30.04 1017 10 16 0.00 0.00
3:52 pm 15:52 Mostly Cloudy 52 11.1 31 -0.6 45 45 NNE 6 9 30.06 1018 10 16 0.00 0.00
4:52 pm 16:52 Mostly Cloudy 52 11.1 30 -1.1 43 43 N 16 26 30.05 1018 10 16 0.00 0.00
5:52 pm 17:52 Mostly Cloudy 50 10 28 -2.2 43 43 N 5 7 30.06 1018 10 16 0.00 0.00
6:52 pm 18:52 Partly Cloudy 48 8.9 30 -1.1 50 50 NNE 3 6 30.06 1018 10 16 0.00 0.00
7:52 pm 19:52 Mostly Cloudy 47 8.3 32 0 56 56 S 3 6 30.09 1019 10 16 0.00 0.00
8:52 pm 20:52 Cloudy 47 8.3 35 1.7 63 63 Calm 30.09 1019 10 16 0.00 0.00
9:52 pm 21:52 Cloudy 46 7.8 35 1.7 66 66 S 5 7 30.09 1019 10 16 0.00 0.00
10:52 pm 22:52 Cloudy 45 7.2 34 1.1 66 66 S 9 15 30.08 1019 10 16 0.00 0.00
11:52 pm 23:52 Mostly Cloudy 43 6.1 36 2.2 76 76 S 5 7 30.10 1019 10 16 0.00 0.00

Powered by AerisWeather